Regional Weather Roundup
Issued by NWS

Home | Current Version | Previous Version | Text Only | Print | Product List | Glossary On
Versions: 1 2 3 4 5 6 7 8 9 10 11 12 13 14 15 16 17 18 19 20 21 22 23 24 25 26 27 28 29 30 31 32 33 34 35 36 37 38 39 40 41 42 43 44 45 46 47 48 49 50
000
ASUS43 KDTX 250110
RWRMI
MICHIGAN HOURLY REGIONAL WEATHER ROUNDUP
NATIONAL WEATHER SERVICE DETROIT/PONTIAC MI
900 PM EDT SUN MAY 24 2015

NOTE: "FAIR" INDICATES FEW OR NO CLOUDS BELOW 12,000 FEET WITH NO
SIGNIFICANT WEATHER AND/OR OBSTRUCTION TO VISIBILITY.

MIZ047>049-052>055-059>063-066>070-074>076-081>083-250200-
SOUTHEAST LOWER MICHIGAN

CITY           SKY/WX    TMP DP  RH WIND       PRES   REMARKS
ADRIAN         MOCLDY    71  53  52 SE9       30.08F
ALMA           LGT RAIN  62  58  87 NE7       30.09S
ANN ARBOR      CLOUDY    70  52  52 SE7       30.09F
BAD AXE        LGT RAIN  64  53  68 CALM      30.12F
CARO           DRIZZLE   63  57  81 NE5       30.10F
DETROIT CITY   CLOUDY    69  48  47 SE8       30.11F
DETROIT        CLOUDY    74  50  42 E7        30.10F
FLINT          CLOUDY    70  55  59 E7        30.09F
GROSSE ILE     CLOUDY    70  46  43 E6        30.09S
HILLSDALE      MOCLDY    76  53  45 SE6       30.07S
HOWELL         CLOUDY    72  51  48 SE8       30.08F

CITY           SKY/WX    TMP DP  RH WIND       PRES   REMARKS
JACKSON        MOCLDY    72  53  51 E13       30.07F
LAMBERTVILLE   MOCLDY    68  54  60 CALM      30.09F
LANSING        CLOUDY    70  55  59 E7        30.07S
LAPEER         LGT RAIN  67  52  57 CALM      30.11S
MASON          CLOUDY    68  54  60 SE5       30.07S
MONROE         CLOUDY    68  50  52 E8        30.08F
MT. CLEMENS    CLOUDY    64  55  73 SE2       30.09F
PONTIAC        CLOUDY    72  49  44 SE8       30.09F
PORT HOPE        N/A     67  54  63 CALM      30.11S
PORT HURON     CLOUDY    66  54  63 CALM      30.12F
TRI CITIES     LGT RAIN  64  59  83 NE6       30.11S
MIDLAND        DRIZZLE   62  60  94 CALM      30.10S
TROY           CLOUDY    74  47  37 SE8       30.12F
SAGINAW HB     LGT RAIN  64  59  82 N3        30.10S
$$
MIZ043>046-050>051-056>058-064>065-071>073-077>080-250200-
SOUTHWEST LOWER MICHIGAN

CITY           SKY/WX    TMP DP  RH WIND       PRES   REMARKS
BATTLE CREEK   CLOUDY    74  56  53 E8        30.04S
BENTON HARBOR  CLOUDY    73  58  59 SE6       29.97F
BIG RAPIDS     RAIN      60  55  85 CALM      30.07F
COLDWATER      MOCLDY    74  52  46 SE3       30.04S
FREMONT        CLOUDY    60  58  92 E14       30.02F
HOLLAND        CLOUDY    69  56  62 E6        30.01F
GRAND RAPIDS   LGT RAIN  68  56  65 NE8       30.03F
IONIA          CLOUDY    69  55  59 E8        30.04F
KALAMAZOO      CLOUDY    73  57  57 E3        30.02S
LUDINGTON      RAIN      61  58  91 E7        30.06R
MARSHALL       MOCLDY    72  56  55 SE6       30.04S
MOUNT PLEASANT LGT RAIN  61  59  92 NE5       30.08F
MUSKEGON       LGT RAIN  62  57  83 E8        30.01F
SOUTH HAVEN    CLOUDY    69  60  73 E7        29.98F
$$
MIZ016>042-250200-
NORTHERN LOWER MICHIGAN

CITY           SKY/WX    TMP DP  RH WIND       PRES   REMARKS
ALPENA         LGT RAIN  68  47  46 CALM      30.10R
BEAVER ISLAND  CLOUDY    55  48  79 SW7       30.07F
BELLAIRE       LGT RAIN  60  56  86 CALM      30.08F
CADILLAC       LGT RAIN  58  56  92 SE6       30.08F
CHARLEVOIX     CLOUDY    62  51  68 CALM      30.10F
FRANKFORT      LGT RAIN  62  54  76 SE6       30.06S
GAYLORD        LGT RAIN  60  56  86 S7        30.10S
GRAYLING       LGT RAIN  57  55  94 CALM      30.11F
HARBOR SPRINGS DRIZZLE   50  46  84 CALM      30.09S
HOUGHTON LAKE  LGT RAIN  58  56  93 E5        30.11F
MANISTEE       CLOUDY    57  54  88 E7        30.06F
OSCODA         RAIN      65  53  65 SW8       30.11S
PELLSTON       CLOUDY    61  48  62 SW3       30.08F
ROGERS CITY    CLOUDY    59  47  63 CALM      30.10R
TRAVERSE CITY  LGT RAIN  61  57  87 CALM      30.07F
$$
MIZ007>008-015-250200-
EASTERN UPPER MICHIGAN

CITY           SKY/WX    TMP DP  RH WIND       PRES   REMARKS
KINROSS        CLOUDY    63  48  59 SW6       30.07R
MACKINAC ISLAN CLOUDY    55  47  74 SW7       30.08S
NEWBERRY       CLOUDY    61  50  66 SW13      30.05R
S. S. MARIE    CLOUDY    64  48  56 W9        30.05R
MUNISING         N/A     68  51  54 S9        30.00S
$$
MIZ004>006-011>014-085-250200-
CENTRAL UPPER MICHIGAN

CITY           SKY/WX    TMP DP  RH WIND       PRES   REMARKS
MANISTIQUE     CLOUDY    53  48  85 SW7       30.06S
ESCANABA       CLOUDY    57  52  82 SW7       30.03S
MENOMINEE      CLOUDY    57  52  82 S5        30.03F
SAWYER-GWINN   CLEAR     66  52  59 S13       30.01S
$$
MIZ001>003-009>011-084-250200-
WESTERN UPPER MICHIGAN

CITY           SKY/WX    TMP DP  RH WIND       PRES   REMARKS
IRON MOUNTAIN  LGT RAIN  59  56  89 SE6       30.01F FOG
HOUGHTON       CLOUDY    63  43  48 E9        29.96F
COPPER HARBOR    N/A     63  42  46 SW8       29.95F
IRONWOOD       CLOUDY    64  52  63 SE9       29.95F
$$

ABBREVIATIONS USED IN REMARKS
   TC - TEMPERATURE IN CELSIUS
  WCI - WIND CHILL INDEX
   HX - HEAT INDEX
  VSB - VISIBILITY




USA.gov is the U.S. government's official web portal to all federal, state and local government web resources and services.